Weather History for Angola Tri-State Steuben Coun, IN

Change the Weather History Date:

Monday, January 27, 2014

  Actual Average (KFWA) Record (KFWA)
Temperature  
Mean Temperature 6 °F 25 °F  
Max Temperature 19 °F 33 °F 65 °F (1916)
Min Temperature -7 °F 17 °F -11 °F (2000)
Degree Days  
Heating Degree Days 59 40  
Month to date heating degree days 1079  
Since 1 July heating degree days 3407  
Cooling Degree Days 0 0  
Month to date cooling degree days 0  
Year to date cooling degree days 0  
Moisture  
Dew Point -4 °F    
Average Humidity 72    
Maximum Humidity 85    
Minimum Humidity 49    
Precipitation  
Precipitation 0.00 in 0.06 in 0.89 in (1949)
Month to date precipitation 1.98  
Year to date precipitation 1.98  
Snow  
Snow 0.00 in 0.30 in 7.40 in (2004)
Month to date snowfall 8.7  
Since 1 July snowfall 19.3  
Snow Depth -    
Sea Level Pressure  
Sea Level Pressure 30.02 in    
Wind  
Wind Speed 15 mph (West)    
Max Wind Speed 28 mph    
Max Gust Speed 39 mph    
Visibility 8 miles    
Events      
T = Trace of Precipitation, MM = Missing Value Source: NWS Daily Summary

Daily Weather History Graph

Daily Weather History Graph

Search for Another Location

Airport:

Trip Planner

Search our weather history database for the weather conditions in past years. The results will help you decide how hot, cold, wet, or windy it might be!

Date:

Astronomy

Jan. 27, 2014 Rise Set
Actual Time 7:56 AM EST 5:49 PM EST
Civil Twilight 7:27 AM EST 6:19 PM EST
Nautical Twilight 6:53 AM EST 6:53 PM EST
Astronomical Twilight 6:20 AM EST 7:25 PM EST
Moon 4:38 AM EST (1/27) 2:34 PM EST (1/27)
Length of Visible Light 10h 52m
Length of Day
9h 52m
Waning Crescent, 15% of the Moon is Illuminated
Jan 27
Waning Crescent
Jan 30
New
Feb 6
First Quarter
Feb 14
Full
Feb 22
Last Quarter

Hourly Weather History & Observations

Time (EST) Temp. Windchill Dew Point Humidity Pressure Visibility Wind Dir Wind Speed Gust Speed Precip Events Conditions
12:35 AM 19.4 °F 3.2 °F 6.8 °F 58% 29.51 in 9.0 mi West 20.7 mph - N/A   Overcast
12:55 AM 19.4 °F 2.8 °F 3.2 °F 49% 29.53 in 7.0 mi West 21.9 mph 29.9 mph N/A   Overcast
1:35 AM 17.6 °F -1.3 °F 1.4 °F 49% 29.56 in 5.0 mi NW 27.6 mph 39.1 mph N/A   Mostly Cloudy
1:55 AM 15.8 °F -1.5 °F 6.8 °F 68% 29.59 in 5.0 mi NW 20.7 mph - N/A   Mostly Cloudy
2:15 AM 14.0 °F -2.0 °F 5.0 °F 67% 29.62 in 6.0 mi West 16.1 mph - N/A   Mostly Cloudy
2:35 AM 12.2 °F -4.8 °F 6.8 °F 79% 29.64 in 6.0 mi West 17.3 mph 26.5 mph N/A   Mostly Cloudy
2:55 AM 12.2 °F -2.5 °F 6.8 °F 79% 29.67 in 10.0 mi West 12.7 mph - N/A   Mostly Cloudy
3:15 AM 12.2 °F -6.3 °F 5.0 °F 73% 29.69 in 8.0 mi WNW 20.7 mph - N/A   Mostly Cloudy
3:35 AM 10.4 °F -9.1 °F 5.0 °F 79% 29.71 in 4.0 mi West 21.9 mph 29.9 mph N/A   Scattered Clouds
3:55 AM 10.4 °F -5.4 °F 3.2 °F 73% 29.73 in 9.0 mi West 13.8 mph - N/A   Partly Cloudy
4:15 AM 10.4 °F -7.2 °F 3.2 °F 73% 29.76 in 10.0 mi WNW 17.3 mph - N/A   Scattered Clouds
4:35 AM 8.6 °F -6.3 °F 3.2 °F 79% 29.78 in 7.0 mi West 11.5 mph - N/A   Mostly Cloudy
4:55 AM 8.6 °F -7.7 °F 1.4 °F 73% 29.80 in 10.0 mi West 13.8 mph - N/A   Scattered Clouds
5:15 AM 8.6 °F -7.7 °F 1.4 °F 73% 29.82 in 10.0 mi West 13.8 mph - N/A   Mostly Cloudy
5:35 AM 8.6 °F -7.7 °F 1.4 °F 73% 29.84 in 5.0 mi West 13.8 mph - N/A   Overcast
5:55 AM 8.6 °F -7.7 °F 1.4 °F 73% 29.85 in 5.0 mi West 13.8 mph - N/A   Overcast
6:15 AM 8.6 °F -6.3 °F 1.4 °F 73% 29.87 in 5.0 mi West 11.5 mph - N/A   Overcast
6:35 AM 6.8 °F -10.7 °F 1.4 °F 79% 29.88 in 4.0 mi West 15.0 mph - N/A   Overcast
6:55 AM 6.8 °F -10.0 °F 1.4 °F 79% 29.90 in 6.0 mi West 13.8 mph - N/A   Overcast
7:15 AM 6.8 °F -10.0 °F 1.4 °F 79% 29.92 in 9.0 mi West 13.8 mph - N/A   Overcast
7:35 AM 6.8 °F -9.3 °F 1.4 °F 79% 29.93 in 8.0 mi West 12.7 mph - N/A   Overcast
7:55 AM 6.8 °F -9.3 °F 1.4 °F 79% 29.95 in 10.0 mi West 12.7 mph - N/A   Overcast
8:15 AM 6.8 °F -7.8 °F -0.4 °F 72% 29.96 in 10.0 mi West 10.4 mph - N/A   Overcast
8:35 AM 5.0 °F -10.0 °F -0.4 °F 78% 29.98 in 9.0 mi WSW 10.4 mph - N/A   Overcast
8:55 AM 3.2 °F -13.1 °F -0.4 °F 85% 30.00 in 10.0 mi WSW 11.5 mph - N/A   Overcast
9:15 AM 3.2 °F -14.6 °F -2.2 °F 78% 30.01 in 10.0 mi WSW 13.8 mph - N/A   Overcast
9:35 AM 3.2 °F -13.1 °F -2.2 °F 78% 30.02 in 9.0 mi WSW 11.5 mph - N/A   Overcast
9:55 AM 3.2 °F -12.2 °F -2.2 °F 78% 30.03 in 10.0 mi WSW 10.4 mph - N/A   Overcast
10:15 AM 3.2 °F -14.6 °F -2.2 °F 78% 30.04 in 10.0 mi WSW 13.8 mph - N/A   Mostly Cloudy
10:35 AM 3.2 °F -15.3 °F -4.0 °F 72% 30.05 in 9.0 mi WSW 15.0 mph - N/A   Mostly Cloudy
10:55 AM 3.2 °F -14.6 °F -2.2 °F 78% 30.06 in 8.0 mi West 13.8 mph - N/A   Mostly Cloudy
11:15 AM 5.0 °F -13.0 °F -2.2 °F 72% 30.07 in 7.0 mi West 15.0 mph - N/A   Scattered Clouds
11:35 AM 5.0 °F -14.2 °F -4.0 °F 66% 30.07 in 7.0 mi West 17.3 mph - N/A   Partly Cloudy
11:55 AM 5.0 °F -11.6 °F -4.0 °F 66% 30.07 in 10.0 mi West 12.7 mph - N/A   Partly Cloudy
12:15 PM 5.0 °F -11.6 °F -4.0 °F 66% 30.08 in 10.0 mi WSW 12.7 mph - N/A   Clear
12:35 PM 5.0 °F -12.3 °F -4.0 °F 66% 30.08 in 8.0 mi WSW 13.8 mph - N/A   Partly Cloudy
12:55 PM 6.8 °F -9.3 °F -4.0 °F 61% 30.08 in 7.0 mi WSW 12.7 mph - N/A   Mostly Cloudy
1:15 PM 3.2 °F -16.5 °F -4.0 °F 72% 30.09 in 6.0 mi WSW 17.3 mph - N/A   Overcast
1:35 PM 3.2 °F -15.9 °F -5.8 °F 66% 30.09 in 2.5 mi WSW 16.1 mph - N/A   Overcast
1:55 PM 3.2 °F -16.5 °F -5.8 °F 66% 30.09 in 3.0 mi WSW 17.3 mph - N/A   Overcast
2:15 PM 3.2 °F -15.3 °F -4.0 °F 72% 30.09 in 4.0 mi West 15.0 mph - N/A   Overcast
2:35 PM 3.2 °F -14.6 °F -5.8 °F 66% 30.10 in 4.0 mi West 13.8 mph - N/A   Mostly Cloudy
2:55 PM 3.2 °F -15.3 °F -5.8 °F 66% 30.11 in 6.0 mi West 15.0 mph - N/A   Mostly Cloudy
3:15 PM 3.2 °F -13.9 °F -7.6 °F 61% 30.11 in 10.0 mi West 12.7 mph - N/A   Partly Cloudy
3:35 PM 3.2 °F -15.3 °F -7.6 °F 61% 30.12 in 10.0 mi WSW 15.0 mph - N/A   Partly Cloudy
3:55 PM 1.4 °F -18.8 °F -7.6 °F 66% 30.13 in 10.0 mi WSW 17.3 mph - N/A   Partly Cloudy
4:15 PM 1.4 °F -16.9 °F -7.6 °F 66% 30.14 in 10.0 mi WSW 13.8 mph - N/A   Scattered Clouds
4:35 PM 1.4 °F -16.9 °F -7.6 °F 66% 30.15 in 10.0 mi West 13.8 mph - N/A   Scattered Clouds
4:55 PM -0.4 °F -16.7 °F -9.4 °F 66% 30.16 in 9.0 mi West 10.4 mph - N/A   Scattered Clouds
5:15 PM -0.4 °F -15.7 °F -7.6 °F 72% 30.17 in 10.0 mi WSW 9.2 mph - N/A   Mostly Cloudy
5:35 PM -0.4 °F -18.4 °F -9.4 °F 66% 30.17 in 10.0 mi West 12.7 mph - N/A   Scattered Clouds
5:55 PM -2.2 °F -20.7 °F -9.4 °F 71% 30.18 in 9.0 mi WSW 12.7 mph - N/A   Partly Cloudy
6:15 PM -2.2 °F -18.9 °F -9.4 °F 71% 30.19 in 10.0 mi WSW 10.4 mph - N/A   Partly Cloudy
6:35 PM -2.2 °F -18.0 °F -9.4 °F 71% 30.20 in 9.0 mi West 9.2 mph - N/A   Partly Cloudy
6:55 PM -2.2 °F -16.8 °F -9.4 °F 71% 30.21 in 10.0 mi WSW 8.1 mph - N/A   Clear
7:15 PM -4.0 °F -20.2 °F -9.4 °F 78% 30.22 in 10.0 mi West 9.2 mph - N/A   Clear
7:35 PM -4.0 °F -17.8 °F -9.4 °F 78% 30.22 in 10.0 mi Variable 6.9 mph - N/A   Clear
7:55 PM -4.0 °F -17.8 °F -9.4 °F 78% 30.24 in 10.0 mi WSW 6.9 mph - N/A   Clear
8:15 PM -5.8 °F -19.9 °F -9.4 °F 84% 30.24 in 10.0 mi WSW 6.9 mph - N/A   Clear
8:35 PM -5.8 °F -21.2 °F -9.4 °F 84% 30.25 in 10.0 mi West 8.1 mph - N/A   Clear
8:55 PM -5.8 °F -22.4 °F -11.2 °F 77% 30.25 in 10.0 mi WSW 9.2 mph - N/A   Clear
9:15 PM -5.8 °F -19.9 °F -11.2 °F 77% 30.26 in 10.0 mi Variable 6.9 mph - N/A   Clear
9:35 PM -5.8 °F -21.2 °F -11.2 °F 77% 30.27 in 10.0 mi WSW 8.1 mph - N/A   Clear
9:55 PM -5.8 °F -19.9 °F -11.2 °F 77% 30.27 in 10.0 mi WSW 6.9 mph - N/A   Clear
10:15 PM -7.6 °F -23.4 °F -13.0 °F 77% 30.27 in 10.0 mi WSW 8.1 mph - N/A   Clear
10:35 PM -7.6 °F -22.1 °F -13.0 °F 77% 30.28 in 10.0 mi WSW 6.9 mph - N/A   Clear
10:55 PM -7.6 °F -23.4 °F -14.8 °F 71% 30.28 in 10.0 mi WSW 8.1 mph - N/A   Clear
11:15 PM -7.6 °F -23.4 °F -14.8 °F 71% 30.29 in 10.0 mi WSW 8.1 mph - N/A   Clear
11:35 PM -7.6 °F -24.6 °F -14.8 °F 71% 30.29 in 10.0 mi West 9.2 mph - N/A   Clear
11:55 PM -7.6 °F -22.1 °F -14.8 °F 71% 30.29 in 10.0 mi West 6.9 mph - N/A   Clear